Home   Weather   Lindau (Bodensee)   Past weeks

Flag for Germany Past Weather in Lindau (Bodensee), Bavaria, Germany — Yesterday and Last 2 Weeks

42 °F

Quite cool.

Feels Like: 42 °F
Forecast: 36 / 57 °F
Wind: 1 mph from Southeast

Location: Bregenz

Current Time: Oct 22, 2016 at 7:59:35 PM

Latest Report: Oct 22, 2016 at 7:00 PM

Visibility: N/A

Pressure: 29.99 "Hg

Humidity: 92%

Dew Point: 40 °F

Location of Lindau (Bodensee)Location

Past Weather in Lindau (Bodensee) — Graph


Lindau (Bodensee) Temperature Yesterday

Maximum temperature yesterday: 46 °F (at 4:00 PM)
Minimum temperature yesterday: 42 °F (at 9:00 AM)
Average temperature yesterday: 45 °F

High & Low Weather Summary for the Past Weeks

High60 °F (Oct 15, 3:00 PM)100% (Oct 16, 11:00 AM)30.27 "Hg (Oct 16, 11:00 AM)
Low35 °F (Oct 13, 7:00 AM)45% (Oct 11, 2:00 PM)29.66 "Hg (Oct 14, 8:00 PM)
Average47 °F85%30.07 "Hg
* Reported Oct 7 6:00 PM — Oct 22 6:00 PM, Lindau (Bodensee), Weather by CustomWeather, © 2016

Note: Actual official high and low records may vary slightly from our data, if they occured in-between our weather recording intervals... More about our weather records


Lindau (Bodensee) Weather History for the Previous 24 Hours

Scroll right to see more
Time TempWeatherWind HumidityBarometerVisibility
6:00 PM
Sat, Oct 22
44 °FQuite cool.2 mph88%29.97 "HgN/A
5:00 PM48 °FCool.1 mph79%29.96 "HgN/A
4:00 PM51 °FCool.2 mph63%29.95 "HgN/A
3:00 PM51 °FCool.2 mph62%29.96 "HgN/A
2:00 PM51 °FPassing clouds.2 mph60%29.97 "Hg9 mi
1:00 PM50 °FCool.2 mph61%29.98 "HgN/A
12:00 PM49 °FCool.1 mph68%29.99 "HgN/A
11:00 AM46 °FPassing clouds.3 mph76%30.00 "Hg9 mi
10:00 AM45 °FQuite cool.3 mph79%30.01 "HgN/A
9:00 AM41 °FQuite cool.2 mph92%30.03 "HgN/A
8:00 AM43 °FScattered clouds.3 mph88%30.02 "Hg4 mi
7:00 AM42 °FQuite cool.3 mph93%30.01 "HgN/A
6:00 AM42 °FQuite cool.3 mph93%30.01 "HgN/A
5:00 AM45 °FQuite cool.5 mph85%30.00 "HgN/A
4:00 AM44 °FQuite cool.5 mph88%30.01 "HgN/A
3:00 AM44 °FQuite cool.3 mph88%30.03 "HgN/A
2:00 AM44 °FQuite cool.3 mph90%30.03 "HgN/A
1:00 AM45 °FQuite cool.2 mph89%30.05 "HgN/A
12:00 AM45 °FQuite cool.3 mph91%30.05 "HgN/A
11:00 PM
Fri, Oct 21
44 °FQuite cool.1 mph95%30.06 "HgN/A
10:00 PM44 °FQuite cool.2 mph94%30.05 "HgN/A
9:00 PM44 °FQuite cool.1 mph96%30.05 "HgN/A
8:00 PM44 °FQuite cool.2 mph96%30.05 "HgN/A
7:00 PM44 °FFog.1 mph95%30.04 "HgN/A
Weather by CustomWeather, © 2016

See weather overviewHow to use our weather pages